Time,TemperatureF,DewpointF,PressureIn,WindDirection,WindDirectionDegrees,WindSpeedMPH,WindSpeedGustMPH,Humidity,HourlyPrecipIn,Conditions,Clouds,dailyrainin,SoftwareType,DateUTC
2015-01-26 00:03:00,55.2,36.3,30.05,ENE,61,0.0,1.0,49,0.00,,,0.00,meteobridge,2015-01-26 08:03:00,
2015-01-26 00:08:00,55.2,36.3,30.05,ENE,61,0.0,1.0,49,0.00,,,0.00,meteobridge,2015-01-26 08:08:00,
2015-01-26 00:13:00,55.2,36.9,30.05,ENE,61,0.0,0.0,50,0.00,,,0.00,meteobridge,2015-01-26 08:13:00,
2015-01-26 00:18:00,55.0,36.7,30.05,ENE,61,0.0,1.0,50,0.00,,,0.00,meteobridge,2015-01-26 08:18:00,
2015-01-26 00:23:00,54.9,37.0,30.05,ENE,61,0.0,0.0,51,0.00,,,0.00,meteobridge,2015-01-26 08:23:00,
2015-01-26 00:28:00,54.5,37.8,30.05,ENE,61,0.0,1.0,53,0.00,,,0.00,meteobridge,2015-01-26 08:28:00,
2015-01-26 00:33:00,54.1,37.4,30.06,ENE,61,0.0,1.0,53,0.00,,,0.00,meteobridge,2015-01-26 08:33:00,
2015-01-26 00:38:00,54.0,38.1,30.06,ENE,61,0.0,0.0,55,0.00,,,0.00,meteobridge,2015-01-26 08:38:00,
2015-01-26 00:43:00,53.6,38.3,30.06,ENE,62,0.0,0.0,56,0.00,,,0.00,meteobridge,2015-01-26 08:43:00,
2015-01-26 00:48:00,53.2,38.5,30.06,ENE,61,0.0,0.0,57,0.00,,,0.00,meteobridge,2015-01-26 08:48:00,
2015-01-26 00:53:00,53.1,38.3,30.06,ENE,61,0.0,1.0,57,0.00,,,0.00,meteobridge,2015-01-26 08:53:00,
2015-01-26 00:58:00,52.9,38.5,30.06,ENE,62,0.0,1.0,58,0.00,,,0.00,meteobridge,2015-01-26 08:58:00,
2015-01-26 01:03:00,52.5,38.7,30.06,ENE,73,0.9,1.0,59,0.00,,,0.00,meteobridge,2015-01-26 09:03:00,
2015-01-26 01:08:00,52.3,39.4,30.06,ENE,74,0.0,1.0,61,0.00,,,0.00,meteobridge,2015-01-26 09:08:00,
2015-01-26 01:13:00,52.2,39.9,30.06,ENE,77,0.0,1.0,63,0.00,,,0.00,meteobridge,2015-01-26 09:13:00,
2015-01-26 01:18:00,52.0,40.1,30.06,ENE,77,0.0,1.0,64,0.00,,,0.00,meteobridge,2015-01-26 09:18:00,
2015-01-26 01:23:00,51.6,39.9,30.07,ENE,77,0.0,0.0,64,0.00,,,0.00,meteobridge,2015-01-26 09:23:00,
2015-01-26 01:29:00,51.4,40.1,30.07,ENE,77,0.0,0.0,65,0.00,,,0.00,meteobridge,2015-01-26 09:29:00,
2015-01-26 01:34:00,51.3,40.3,30.07,ENE,77,0.0,0.0,66,0.00,,,0.00,meteobridge,2015-01-26 09:34:00,
2015-01-26 01:39:00,51.1,39.7,30.07,ENE,77,0.0,0.0,65,0.00,,,0.00,meteobridge,2015-01-26 09:39:00,
2015-01-26 01:44:00,50.7,39.4,30.07,East,81,0.0,1.0,65,0.00,,,0.00,meteobridge,2015-01-26 09:44:00,
2015-01-26 01:49:00,50.5,39.6,30.07,East,81,0.0,1.0,66,0.00,,,0.00,meteobridge,2015-01-26 09:49:00,
2015-01-26 01:54:00,50.4,39.4,30.07,East,81,0.0,1.0,66,0.00,,,0.00,meteobridge,2015-01-26 09:54:00,
2015-01-26 01:59:00,50.2,39.2,30.07,East,81,0.9,1.0,66,0.00,,,0.00,meteobridge,2015-01-26 09:59:00,
2015-01-26 02:04:00,49.8,38.8,30.07,East,81,0.0,1.0,66,0.00,,,0.00,meteobridge,2015-01-26 10:04:00,
2015-01-26 02:09:00,49.8,38.8,30.07,East,81,0.0,1.0,66,0.00,,,0.00,meteobridge,2015-01-26 10:09:00,
2015-01-26 02:14:00,49.6,39.2,30.07,East,86,0.9,1.0,67,0.00,,,0.00,meteobridge,2015-01-26 10:14:00,
2015-01-26 02:19:00,49.6,39.2,30.07,East,86,0.0,1.0,67,0.00,,,0.00,meteobridge,2015-01-26 10:19:00,
2015-01-26 02:24:00,49.6,39.2,30.08,East,86,0.0,1.0,67,0.00,,,0.00,meteobridge,2015-01-26 10:24:00,
2015-01-26 02:29:00,49.5,38.7,30.08,East,86,0.0,1.0,66,0.00,,,0.00,meteobridge,2015-01-26 10:29:00,
2015-01-26 02:34:00,49.3,38.5,30.08,North,354,0.0,0.0,66,0.00,,,0.00,meteobridge,2015-01-26 10:34:00,
2015-01-26 02:39:00,49.1,38.3,30.08,North,354,0.0,0.0,66,0.00,,,0.00,meteobridge,2015-01-26 10:39:00,
2015-01-26 02:44:00,48.9,38.1,30.08,North,354,0.0,1.0,66,0.00,,,0.00,meteobridge,2015-01-26 10:44:00,
2015-01-26 02:49:00,48.7,37.9,30.08,NNE,25,0.0,1.0,66,0.00,,,0.00,meteobridge,2015-01-26 10:49:00,
2015-01-26 02:54:00,48.7,37.6,30.08,NE,39,0.0,1.0,65,0.00,,,0.00,meteobridge,2015-01-26 10:54:00,
2015-01-26 02:59:00,48.6,37.4,30.08,NE,39,0.0,0.0,65,0.00,,,0.00,meteobridge,2015-01-26 10:59:00,
2015-01-26 03:04:00,48.4,37.2,30.08,NE,39,0.0,1.0,65,0.00,,,0.00,meteobridge,2015-01-26 11:04:00,
2015-01-26 03:09:00,48.2,37.0,30.08,NE,39,0.0,1.0,65,0.00,,,0.00,meteobridge,2015-01-26 11:09:00,
2015-01-26 03:14:00,48.0,36.9,30.08,NE,39,0.0,0.0,65,0.00,,,0.00,meteobridge,2015-01-26 11:14:00,
2015-01-26 03:19:00,47.8,36.3,30.08,NE,39,0.0,1.0,64,0.00,,,0.00,meteobridge,2015-01-26 11:19:00,
2015-01-26 03:24:00,47.7,36.9,30.08,East,79,0.0,1.0,66,0.00,,,0.00,meteobridge,2015-01-26 11:24:00,
2015-01-26 03:30:00,47.5,36.3,30.08,East,79,0.0,1.0,65,0.00,,,0.00,meteobridge,2015-01-26 11:30:00,
2015-01-26 03:35:00,47.3,36.9,30.08,East,79,0.0,1.0,67,0.00,,,0.00,meteobridge,2015-01-26 11:35:00,
2015-01-26 03:40:00,47.1,36.7,30.08,East,79,0.0,1.0,67,0.00,,,0.00,meteobridge,2015-01-26 11:40:00,
2015-01-26 03:45:00,47.1,36.3,30.08,East,79,0.0,1.0,66,0.00,,,0.00,meteobridge,2015-01-26 11:45:00,
2015-01-26 03:50:00,47.1,36.0,30.08,East,79,0.0,1.0,65,0.00,,,0.00,meteobridge,2015-01-26 11:50:00,
2015-01-26 03:55:00,47.3,36.1,30.08,East,79,0.0,1.0,65,0.00,,,0.00,meteobridge,2015-01-26 11:55:00,
2015-01-26 04:00:00,47.7,35.6,30.08,East,79,0.0,1.0,63,0.00,,,0.00,meteobridge,2015-01-26 12:00:00,
2015-01-26 04:05:00,48.0,35.6,30.08,East,79,0.0,1.0,62,0.00,,,0.00,meteobridge,2015-01-26 12:05:00,
2015-01-26 04:10:00,48.6,36.1,30.07,East,79,0.0,0.0,62,0.00,,,0.00,meteobridge,2015-01-26 12:10:00,
2015-01-26 04:15:00,48.6,36.1,30.07,East,79,0.0,1.0,62,0.00,,,0.00,meteobridge,2015-01-26 12:15:00,
2015-01-26 04:20:00,48.4,36.3,30.07,East,79,0.0,1.0,63,0.00,,,0.00,meteobridge,2015-01-26 12:20:00,
2015-01-26 04:25:00,48.4,36.0,30.07,East,79,0.0,1.0,62,0.00,,,0.00,meteobridge,2015-01-26 12:25:00,
2015-01-26 04:30:00,48.6,35.8,30.07,East,79,0.0,1.0,61,0.00,,,0.00,meteobridge,2015-01-26 12:30:00,
2015-01-26 04:35:00,48.7,35.4,30.07,East,79,0.0,1.0,60,0.00,,,0.00,meteobridge,2015-01-26 12:35:00,
2015-01-26 04:40:00,48.9,35.6,30.07,East,79,0.9,1.0,60,0.00,,,0.00,meteobridge,2015-01-26 12:40:00,
2015-01-26 04:45:00,49.1,36.3,30.07,East,79,0.0,0.0,61,0.00,,,0.00,meteobridge,2015-01-26 12:45:00,
2015-01-26 04:50:00,48.9,35.2,30.06,East,79,0.9,1.0,59,0.00,,,0.00,meteobridge,2015-01-26 12:50:00,
2015-01-26 04:55:00,48.9,36.1,30.06,East,79,0.0,1.0,61,0.00,,,0.00,meteobridge,2015-01-26 12:55:00,
2015-01-26 05:00:00,48.7,36.0,30.06,East,79,0.0,0.0,61,0.00,,,0.00,meteobridge,2015-01-26 13:00:00,
2015-01-26 05:05:00,48.6,35.8,30.06,East,79,0.0,0.0,61,0.00,,,0.00,meteobridge,2015-01-26 13:05:00,
2015-01-26 05:10:00,48.4,35.1,30.06,East,79,0.0,1.0,60,0.00,,,0.00,meteobridge,2015-01-26 13:10:00,
2015-01-26 05:15:00,47.8,35.1,30.06,East,79,0.0,1.0,61,0.00,,,0.00,meteobridge,2015-01-26 13:15:00,
2015-01-26 05:20:00,47.8,35.1,30.06,East,79,0.0,1.0,61,0.00,,,0.00,meteobridge,2015-01-26 13:20:00,
2015-01-26 05:25:00,47.7,34.9,30.06,East,79,0.0,1.0,61,0.00,,,0.00,meteobridge,2015-01-26 13:25:00,
2015-01-26 05:30:00,47.7,34.9,30.06,East,79,0.0,1.0,61,0.00,,,0.00,meteobridge,2015-01-26 13:30:00,
2015-01-26 05:35:00,47.7,34.9,30.05,East,79,0.0,0.0,61,0.00,,,0.00,meteobridge,2015-01-26 13:35:00,
2015-01-26 05:40:00,47.5,34.7,30.05,East,79,0.0,1.0,61,0.00,,,0.00,meteobridge,2015-01-26 13:40:00,